Time,TemperatureF,DewpointF,PressureIn,WindDirection,WindDirectionDegrees,WindSpeedMPH,WindSpeedGustMPH,Humidity,HourlyPrecipIn,Conditions,Clouds,dailyrainin,SoftwareType,DateUTC
2013-01-27 00:03:00,37.6,35.7,29.41,South,180,0.0,0.0,93,0.00,,---,0.00,VWS V14.01,2013-01-27 08:03:00,
2013-01-27 00:08:00,37.6,35.7,29.41,South,180,0.0,0.0,93,0.00,,---,0.00,VWS V14.01,2013-01-27 08:08:00,
2013-01-27 00:13:00,37.6,35.7,29.41,South,180,0.0,0.0,93,0.00,,---,0.00,VWS V14.01,2013-01-27 08:13:00,
2013-01-27 00:18:00,37.6,35.7,29.41,South,180,0.0,0.0,93,0.00,,---,0.00,VWS V14.01,2013-01-27 08:18:00,
2013-01-27 00:23:00,37.6,36.0,29.41,South,180,0.0,0.0,94,0.00,,---,0.00,VWS V14.01,2013-01-27 08:23:00,
2013-01-27 00:28:00,37.4,35.8,29.41,South,180,0.0,0.0,94,0.00,,---,0.00,VWS V14.01,2013-01-27 08:28:00,
2013-01-27 00:33:00,37.4,35.8,29.41,South,180,0.0,0.0,94,0.00,,---,0.00,VWS V14.01,2013-01-27 08:33:00,
2013-01-27 00:38:00,37.4,35.8,29.41,South,180,0.0,0.0,94,0.00,,---,0.00,VWS V14.01,2013-01-27 08:38:00,
2013-01-27 00:43:00,37.4,35.8,29.41,South,180,0.0,0.0,94,0.00,,---,0.00,VWS V14.01,2013-01-27 08:43:00,
2013-01-27 00:48:00,37.4,35.8,29.41,South,180,0.0,0.0,94,0.00,,---,0.00,VWS V14.01,2013-01-27 08:48:00,
2013-01-27 00:52:00,37.6,36.0,29.41,South,180,0.0,0.0,94,0.00,,---,0.00,VWS V14.01,2013-01-27 08:52:00,
2013-01-27 00:57:00,37.6,36.0,29.41,South,180,0.0,0.0,94,0.00,,---,0.00,VWS V14.01,2013-01-27 08:57:00,
2013-01-27 01:02:00,37.6,36.0,29.41,South,180,0.0,0.0,94,0.00,,---,0.00,VWS V14.01,2013-01-27 09:02:00,
2013-01-27 01:07:00,37.6,36.0,29.41,South,180,0.0,0.0,94,0.00,,---,0.00,VWS V14.01,2013-01-27 09:07:00,
2013-01-27 01:12:00,37.6,36.0,29.41,South,180,0.0,0.0,94,0.00,,---,0.00,VWS V14.01,2013-01-27 09:12:00,
2013-01-27 01:17:00,37.6,36.0,29.41,South,180,0.0,0.0,94,0.00,,---,0.00,VWS V14.01,2013-01-27 09:17:00,
2013-01-27 01:22:00,37.6,36.0,29.41,South,180,0.0,0.0,94,0.00,,---,0.00,VWS V14.01,2013-01-27 09:22:00,
2013-01-27 01:27:00,37.6,36.0,29.41,South,180,0.0,0.0,94,0.00,,---,0.00,VWS V14.01,2013-01-27 09:27:00,
2013-01-27 01:32:00,37.6,36.3,29.41,South,180,0.0,0.0,95,0.00,,---,0.00,VWS V14.01,2013-01-27 09:32:00,
2013-01-27 01:37:00,37.6,36.3,29.41,South,180,0.0,0.0,95,0.00,,---,0.00,VWS V14.01,2013-01-27 09:37:00,
2013-01-27 01:42:00,37.6,36.3,29.41,South,180,0.0,0.0,95,0.00,,---,0.00,VWS V14.01,2013-01-27 09:42:00,
2013-01-27 01:47:00,37.8,36.5,29.41,South,180,0.0,0.0,95,0.00,,---,0.00,VWS V14.01,2013-01-27 09:47:00,
2013-01-27 01:52:00,37.8,36.5,29.41,South,180,0.0,0.0,95,0.00,,---,0.00,VWS V14.01,2013-01-27 09:52:00,
2013-01-27 01:57:00,37.8,36.5,29.41,South,180,0.0,0.0,95,0.00,,---,0.00,VWS V14.01,2013-01-27 09:57:00,
2013-01-27 02:02:00,37.9,36.6,29.41,South,180,0.0,0.0,95,0.00,,---,0.00,VWS V14.01,2013-01-27 10:02:00,
2013-01-27 02:07:00,37.9,36.6,29.41,South,180,0.0,0.0,95,0.00,,---,0.00,VWS V14.01,2013-01-27 10:07:00,
2013-01-27 02:12:00,37.9,36.6,29.41,South,180,0.0,0.0,95,0.00,,---,0.00,VWS V14.01,2013-01-27 10:12:00,
2013-01-27 02:17:00,37.9,36.6,29.41,South,180,0.0,0.0,95,0.00,,---,0.00,VWS V14.01,2013-01-27 10:17:00,
2013-01-27 02:22:00,37.9,36.6,29.41,South,180,0.0,0.0,95,0.00,,---,0.00,VWS V14.01,2013-01-27 10:22:00,
2013-01-27 02:27:00,37.9,36.6,29.41,South,180,0.0,0.0,95,0.00,,---,0.00,VWS V14.01,2013-01-27 10:27:00,
2013-01-27 02:32:00,37.9,36.6,29.41,South,180,0.0,0.0,95,0.00,,---,0.00,VWS V14.01,2013-01-27 10:32:00,
2013-01-27 02:37:00,37.9,36.6,29.41,South,180,0.0,0.0,95,0.00,,---,0.00,VWS V14.01,2013-01-27 10:37:00,
2013-01-27 02:42:00,37.9,36.6,29.41,South,180,0.0,0.0,95,0.00,,---,0.00,VWS V14.01,2013-01-27 10:42:00,
2013-01-27 02:47:00,37.9,36.6,29.41,South,180,0.0,0.0,95,0.00,,---,0.00,VWS V14.01,2013-01-27 10:47:00,
2013-01-27 02:52:00,38.1,36.8,29.41,South,180,0.0,0.0,95,0.00,,---,0.00,VWS V14.01,2013-01-27 10:52:00,
2013-01-27 02:57:00,38.1,36.8,29.41,South,180,0.0,0.0,95,0.00,,---,0.00,VWS V14.01,2013-01-27 10:57:00,
2013-01-27 03:02:00,37.9,36.6,29.41,South,180,0.0,0.0,95,0.00,,---,0.00,VWS V14.01,2013-01-27 11:02:00,
2013-01-27 03:07:00,37.9,36.6,29.41,South,180,0.0,0.0,95,0.00,,---,0.00,VWS V14.01,2013-01-27 11:07:00,
2013-01-27 03:12:00,37.9,36.6,29.41,South,180,0.0,0.0,95,0.00,,---,0.00,VWS V14.01,2013-01-27 11:12:00,
2013-01-27 03:17:00,37.9,36.9,29.41,South,180,0.0,0.0,96,0.00,,---,0.00,VWS V14.01,2013-01-27 11:17:00,
2013-01-27 03:22:00,38.1,37.1,29.41,South,180,0.0,0.0,96,0.00,,---,0.00,VWS V14.01,2013-01-27 11:22:00,
2013-01-27 03:27:00,38.1,37.1,29.41,South,180,0.0,0.0,96,0.00,,---,0.00,VWS V14.01,2013-01-27 11:27:00,
2013-01-27 03:32:00,38.1,37.1,29.41,South,180,0.0,0.0,96,0.00,,---,0.00,VWS V14.01,2013-01-27 11:32:00,
2013-01-27 03:37:00,38.1,37.1,29.41,South,180,0.0,0.0,96,0.00,,---,0.00,VWS V14.01,2013-01-27 11:37:00,
2013-01-27 03:42:00,38.1,37.1,29.41,South,180,0.0,0.0,96,0.00,,---,0.00,VWS V14.01,2013-01-27 11:42:00,
2013-01-27 03:47:00,38.3,37.3,29.41,South,180,0.0,0.0,96,0.00,,---,0.00,VWS V14.01,2013-01-27 11:47:00,
2013-01-27 03:52:00,38.3,37.3,29.41,South,180,0.0,0.0,96,0.00,,---,0.00,VWS V14.01,2013-01-27 11:52:00,
2013-01-27 03:57:00,38.3,37.3,29.41,South,182,0.0,0.0,96,0.00,,---,0.00,VWS V14.01,2013-01-27 11:57:00,
2013-01-27 04:02:00,38.5,37.4,29.41,South,182,0.0,0.0,96,0.00,,---,0.00,VWS V14.01,2013-01-27 12:02:00,
2013-01-27 04:07:00,38.5,37.4,29.41,South,182,0.0,0.0,96,0.00,,---,0.00,VWS V14.01,2013-01-27 12:07:00,
2013-01-27 04:12:00,38.5,37.4,29.41,South,182,0.0,0.0,96,0.00,,---,0.00,VWS V14.01,2013-01-27 12:12:00,
2013-01-27 04:17:00,38.7,37.6,29.41,South,182,0.0,0.0,96,0.00,,---,0.00,VWS V14.01,2013-01-27 12:17:00,
2013-01-27 04:22:00,38.7,37.6,29.41,South,182,0.0,0.0,96,0.00,,---,0.00,VWS V14.01,2013-01-27 12:22:00,
2013-01-27 04:27:00,38.7,37.6,29.41,South,182,0.0,0.0,96,0.00,,---,0.00,VWS V14.01,2013-01-27 12:27:00,
2013-01-27 04:32:00,38.7,37.6,29.41,South,182,0.0,0.0,96,0.00,,---,0.00,VWS V14.01,2013-01-27 12:32:00,
2013-01-27 04:37:00,38.7,37.6,29.41,South,179,0.0,0.0,96,0.00,,---,0.00,VWS V14.01,2013-01-27 12:37:00,
2013-01-27 04:42:00,38.5,37.4,29.41,South,180,0.0,0.0,96,0.00,,---,0.00,VWS V14.01,2013-01-27 12:42:00,
2013-01-27 04:47:00,38.5,37.4,29.41,South,180,0.0,0.0,96,0.00,,---,0.00,VWS V14.01,2013-01-27 12:47:00,
2013-01-27 04:52:00,38.3,37.3,29.41,South,178,0.0,0.0,96,0.00,,---,0.00,VWS V14.01,2013-01-27 12:52:00,
2013-01-27 04:57:00,38.3,37.3,29.41,South,178,0.0,0.0,96,0.00,,---,0.00,VWS V14.01,2013-01-27 12:57:00,
2013-01-27 05:02:00,38.1,37.1,29.41,South,178,0.0,0.0,96,0.00,,---,0.00,VWS V14.01,2013-01-27 13:02:00,
2013-01-27 05:07:00,38.1,37.1,29.41,South,178,0.0,0.0,96,0.00,,---,0.00,VWS V14.01,2013-01-27 13:07:00,
2013-01-27 05:12:00,38.1,37.1,29.41,South,178,0.0,0.0,96,0.00,,---,0.00,VWS V14.01,2013-01-27 13:12:00,
2013-01-27 05:17:00,38.1,37.1,29.41,South,178,0.0,0.0,96,0.00,,---,0.00,VWS V14.01,2013-01-27 13:17:00,
2013-01-27 05:22:00,38.1,37.1,29.41,South,178,0.0,0.0,96,0.00,,---,0.00,VWS V14.01,2013-01-27 13:22:00,
2013-01-27 05:27:00,38.1,37.1,29.41,South,178,0.0,0.0,96,0.00,,---,0.00,VWS V14.01,2013-01-27 13:27:00,
2013-01-27 05:32:00,38.1,37.1,29.41,South,178,0.0,0.0,96,0.00,,---,0.00,VWS V14.01,2013-01-27 13:32:00,
2013-01-27 05:37:00,38.1,37.1,29.41,South,178,0.0,0.0,96,0.00,,---,0.00,VWS V14.01,2013-01-27 13:37:00,
2013-01-27 05:42:00,38.1,37.1,29.41,South,178,0.0,0.0,96,0.00,,---,0.00,VWS V14.01,2013-01-27 13:42:00,
2013-01-27 05:47:00,38.3,37.3,29.41,South,180,0.0,0.0,96,0.00,,---,0.00,VWS V14.01,2013-01-27 13:47:00,
2013-01-27 05:52:00,38.3,37.3,29.41,South,180,0.0,0.0,96,0.00,,---,0.00,VWS V14.01,2013-01-27 13:52:00,
2013-01-27 05:57:00,38.3,37.3,29.41,South,180,0.0,0.0,96,0.00,,---,0.00,VWS V14.01,2013-01-27 13:57:00,
2013-01-27 06:02:00,38.3,37.5,29.41,South,180,0.0,0.0,97,0.00,,---,0.00,VWS V14.01,2013-01-27 14:02:00,
2013-01-27 06:07:00,38.3,37.5,29.41,South,180,0.0,0.0,97,0.00,,---,0.00,VWS V14.01,2013-01-27 14:07:00,
2013-01-27 06:12:00,38.1,37.3,29.41,South,180,0.0,0.0,97,0.00,,---,0.00,VWS V14.01,2013-01-27 14:12:00,
2013-01-27 06:17:00,38.1,37.3,29.41,South,180,0.0,0.0,97,0.00,,---,0.00,VWS V14.01,2013-01-27 14:17:00,
2013-01-27 06:22:00,38.1,37.3,29.44,South,180,0.0,0.0,97,0.00,,---,0.00,VWS V14.01,2013-01-27 14:22:00,
2013-01-27 06:27:00,38.1,37.3,29.44,South,180,0.0,0.0,97,0.00,,---,0.00,VWS V14.01,2013-01-27 14:27:00,
2013-01-27 06:32:00,38.1,37.3,29.44,South,180,0.0,0.0,97,0.00,,---,0.00,VWS V14.01,2013-01-27 14:32:00,
2013-01-27 06:37:00,37.9,37.2,29.44,South,180,0.0,0.0,97,0.00,,---,0.00,VWS V14.01,2013-01-27 14:37:00,
2013-01-27 06:42:00,37.9,37.2,29.41,South,180,0.0,0.0,97,0.00,,---,0.00,VWS V14.01,2013-01-27 14:42:00,
2013-01-27 06:47:00,37.9,37.2,29.41,South,180,0.0,0.0,97,0.00,,---,0.00,VWS V14.01,2013-01-27 14:47:00,
2013-01-27 06:52:00,37.9,37.2,29.41,South,180,0.0,0.0,97,0.00,,---,0.00,VWS V14.01,2013-01-27 14:52:00,
2013-01-27 06:57:00,37.9,37.2,29.44,South,180,0.0,0.0,97,0.00,,---,0.00,VWS V14.01,2013-01-27 14:57:00,
2013-01-27 07:02:00,38.1,37.3,29.44,South,180,0.0,0.0,97,0.00,,---,0.00,VWS V14.01,2013-01-27 15:02:00,
2013-01-27 07:07:00,38.1,37.3,29.44,South,180,0.0,0.0,97,0.00,,---,0.00,VWS V14.01,2013-01-27 15:07:00,
2013-01-27 07:12:00,38.1,37.3,29.44,South,180,0.0,0.0,97,0.00,,---,0.00,VWS V14.01,2013-01-27 15:12:00,
2013-01-27 07:17:00,38.1,37.3,29.44,South,180,0.0,0.0,97,0.00,,---,0.00,VWS V14.01,2013-01-27 15:17:00,
2013-01-27 07:22:00,38.1,37.3,29.44,South,180,0.0,0.0,97,0.00,,---,0.00,VWS V14.01,2013-01-27 15:22:00,
2013-01-27 07:27:00,38.3,37.5,29.44,South,180,0.0,0.0,97,0.00,,---,0.00,VWS V14.01,2013-01-27 15:27:00,
2013-01-27 07:32:00,38.3,37.5,29.44,South,180,0.0,0.0,97,0.00,,---,0.00,VWS V14.01,2013-01-27 15:32:00,
2013-01-27 07:37:00,38.3,37.5,29.44,South,180,0.0,0.0,97,0.00,,---,0.00,VWS V14.01,2013-01-27 15:37:00,
2013-01-27 07:42:00,38.5,37.7,29.44,South,180,0.0,0.0,97,0.00,,---,0.00,VWS V14.01,2013-01-27 15:42:00,
2013-01-27 07:47:00,38.5,37.7,29.44,South,180,0.0,0.0,97,0.00,,---,0.00,VWS V14.01,2013-01-27 15:47:00,
2013-01-27 07:52:00,38.5,37.7,29.44,South,180,0.0,0.0,97,0.00,,---,0.00,VWS V14.01,2013-01-27 15:52:00,
2013-01-27 07:57:00,38.5,37.7,29.44,South,180,0.0,0.0,97,0.00,,---,0.00,VWS V14.01,2013-01-27 15:57:00,
2013-01-27 08:02:00,38.5,37.7,29.44,South,180,0.0,0.0,97,0.00,,---,0.00,VWS V14.01,2013-01-27 16:02:00,
2013-01-27 08:07:00,38.5,37.7,29.44,South,180,0.0,0.0,97,0.00,,---,0.00,VWS V14.01,2013-01-27 16:07:00,
2013-01-27 08:12:00,38.7,37.9,29.44,South,180,0.0,0.0,97,0.00,,---,0.00,VWS V14.01,2013-01-27 16:12:00,
2013-01-27 08:17:00,38.7,37.9,29.44,South,180,0.0,0.0,97,0.00,,---,0.00,VWS V14.01,2013-01-27 16:17:00,
2013-01-27 08:22:00,38.7,37.9,29.44,South,180,0.0,0.0,97,0.00,,---,0.00,VWS V14.01,2013-01-27 16:22:00,
2013-01-27 08:27:00,38.7,37.9,29.44,South,180,0.0,0.0,97,0.00,,---,0.00,VWS V14.01,2013-01-27 16:27:00,
2013-01-27 08:32:00,38.7,37.9,29.44,South,180,0.0,0.0,97,0.00,,---,0.00,VWS V14.01,2013-01-27 16:32:00,
2013-01-27 08:37:00,38.8,38.1,29.44,South,180,0.0,0.0,97,0.00,,---,0.00,VWS V14.01,2013-01-27 16:37:00,
2013-01-27 08:42:00,38.8,38.1,29.44,South,180,0.0,0.0,97,0.00,,---,0.00,VWS V14.01,2013-01-27 16:42:00,
2013-01-27 08:47:00,38.8,38.1,29.44,South,180,0.0,0.0,97,0.00,,---,0.00,VWS V14.01,2013-01-27 16:47:00,
2013-01-27 08:52:00,39.0,38.2,29.44,South,180,0.0,0.0,97,0.00,,---,0.00,VWS V14.01,2013-01-27 16:52:00,
2013-01-27 08:57:00,39.0,38.2,29.44,South,180,0.0,0.0,97,0.00,,---,0.00,VWS V14.01,2013-01-27 16:57:00,
2013-01-27 09:02:00,39.0,38.2,29.44,South,180,0.0,0.0,97,0.00,,---,0.00,VWS V14.01,2013-01-27 17:02:00,
2013-01-27 09:07:00,38.8,38.1,29.44,SSW,205,0.0,0.0,97,0.00,,---,0.00,VWS V14.01,2013-01-27 17:07:00,
2013-01-27 09:12:00,39.0,38.2,29.44,WSW,252,0.0,0.0,97,0.00,,---,0.00,VWS V14.01,2013-01-27 17:12:00,
2013-01-27 09:17:00,39.4,38.6,29.44,West,274,0.0,0.0,97,0.00,,---,0.00,VWS V14.01,2013-01-27 17:17:00,
2013-01-27 09:22:00,39.4,38.6,29.47,WNW,292,0.0,0.0,97,0.00,,---,0.00,VWS V14.01,2013-01-27 17:22:00,
2013-01-27 09:27:00,39.6,38.8,29.47,West,273,0.0,0.0,97,0.00,,---,0.00,VWS V14.01,2013-01-27 17:27:00,
2013-01-27 09:32:00,39.7,39.0,29.47,NW,311,0.0,0.0,97,0.00,,---,0.00,VWS V14.01,2013-01-27 17:32:00,
2013-01-27 09:37:00,39.7,39.0,29.47,WNW,289,2.2,2.2,97,0.00,,---,0.00,VWS V14.01,2013-01-27 17:37:00,
2013-01-27 09:42:00,39.7,39.0,29.47,West,273,0.0,0.0,97,0.00,,---,0.00,VWS V14.01,2013-01-27 17:42:00,
2013-01-27 09:47:00,39.9,39.1,29.47,WNW,287,2.7,2.7,97,0.00,,---,0.00,VWS V14.01,2013-01-27 17:47:00,
2013-01-27 09:52:00,40.1,39.3,29.47,WNW,287,0.0,0.0,97,0.00,,---,0.00,VWS V14.01,2013-01-27 17:52:00,
2013-01-27 09:57:00,40.3,39.5,29.47,WNW,286,0.0,0.0,97,0.00,,---,0.00,VWS V14.01,2013-01-27 17:57:00,
2013-01-27 10:02:00,40.5,39.7,29.47,WNW,285,0.0,0.0,97,0.00,,---,0.00,VWS V14.01,2013-01-27 18:02:00,
2013-01-27 10:07:00,40.6,39.9,29.47,WNW,285,0.0,0.0,97,0.00,,---,0.00,VWS V14.01,2013-01-27 18:07:00,
2013-01-27 10:12:00,40.6,39.9,29.47,WSW,253,0.0,0.0,97,0.00,,---,0.00,VWS V14.01,2013-01-27 18:12:00,
2013-01-27 10:17:00,40.6,39.9,29.47,West,280,0.0,0.0,97,0.00,,---,0.00,VWS V14.01,2013-01-27 18:17:00,
2013-01-27 10:22:00,40.8,39.8,29.47,West,265,0.0,0.0,96,0.00,,---,0.00,VWS V14.01,2013-01-27 18:22:00,
2013-01-27 10:27:00,41.0,40.0,29.47,West,274,0.0,0.0,96,0.00,,---,0.00,VWS V14.01,2013-01-27 18:27:00,
2013-01-27 10:32:00,41.4,40.3,29.47,West,262,0.0,0.0,96,0.00,,---,0.00,VWS V14.01,2013-01-27 18:32:00,
2013-01-27 10:37:00,41.7,40.4,29.47,NE,34,2.7,2.7,95,0.00,,---,0.00,VWS V14.01,2013-01-27 18:37:00,
2013-01-27 10:42:00,41.9,40.6,29.47,West,280,2.2,2.2,95,0.00,,---,0.00,VWS V14.01,2013-01-27 18:42:00,
2013-01-27 10:47:00,41.9,40.0,29.47,SSE,150,0.0,3.1,93,0.00,,---,0.00,VWS V14.01,2013-01-27 18:47:00,
2013-01-27 10:52:00,42.3,39.8,29.47,West,262,3.1,3.6,91,0.00,,---,0.00,VWS V14.01,2013-01-27 18:52:00,
2013-01-27 10:57:00,42.6,40.2,29.47,West,279,0.0,0.0,91,0.00,,---,0.00,VWS V14.01,2013-01-27 18:57:00,
2013-01-27 11:02:00,43.0,40.0,29.47,West,280,0.0,0.0,89,0.00,,---,0.00,VWS V14.01,2013-01-27 19:02:00,
2013-01-27 11:07:00,43.2,39.6,29.47,WNW,287,0.0,0.0,87,0.00,,---,0.00,VWS V14.01,2013-01-27 19:07:00,
2013-01-27 11:12:00,43.3,39.1,29.47,WSW,240,0.0,0.0,85,0.00,,---,0.00,VWS V14.01,2013-01-27 19:12:00,
2013-01-27 11:17:00,43.5,39.3,29.47,West,276,0.0,0.0,85,0.00,,---,0.00,VWS V14.01,2013-01-27 19:17:00,
2013-01-27 11:22:00,43.7,39.2,29.47,NW,314,3.1,3.1,84,0.00,,---,0.00,VWS V14.01,2013-01-27 19:22:00,
2013-01-27 11:27:00,43.5,38.4,29.47,WNW,283,0.0,0.0,82,0.00,,---,0.00,VWS V14.01,2013-01-27 19:27:00,
2013-01-27 11:32:00,43.5,38.4,29.47,West,268,2.7,2.7,82,0.00,,---,0.00,VWS V14.01,2013-01-27 19:32:00,
2013-01-27 11:37:00,43.3,38.2,29.47,West,274,0.0,0.0,82,0.00,,---,0.00,VWS V14.01,2013-01-27 19:37:00,
2013-01-27 11:42:00,43.2,38.0,29.47,WNW,285,0.0,0.0,82,0.00,,---,0.00,VWS V14.01,2013-01-27 19:42:00,
2013-01-27 11:47:00,42.8,37.4,29.47,West,264,0.0,0.0,81,0.00,,---,0.00,VWS V14.01,2013-01-27 19:47:00,
2013-01-27 11:52:00,42.4,36.7,29.47,SW,235,0.0,2.7,80,0.00,,---,0.00,VWS V14.01,2013-01-27 19:52:00,
2013-01-27 11:57:00,42.3,36.5,29.44,SW,233,0.0,0.0,80,0.00,,---,0.00,VWS V14.01,2013-01-27 19:57:00,
2013-01-27 12:02:00,42.1,36.7,29.44,West,268,2.7,3.6,81,0.00,,---,0.00,VWS V14.01,2013-01-27 20:02:00,
2013-01-27 12:07:00,42.1,37.0,29.44,NW,304,0.0,0.0,82,0.00,,---,0.00,VWS V14.01,2013-01-27 20:07:00,
2013-01-27 12:12:00,42.1,37.0,29.44,WNW,292,2.2,2.2,82,0.00,,---,0.00,VWS V14.01,2013-01-27 20:12:00,
2013-01-27 12:17:00,42.1,37.3,29.44,WNW,289,0.0,0.0,83,0.00,,---,0.00,VWS V14.01,2013-01-27 20:17:00,
2013-01-27 12:22:00,42.3,37.5,29.44,WNW,289,0.0,0.0,83,0.00,,---,0.00,VWS V14.01,2013-01-27 20:22:00,
2013-01-27 12:27:00,42.3,37.5,29.44,WNW,289,0.0,4.0,83,0.00,,---,0.00,VWS V14.01,2013-01-27 20:27:00,
2013-01-27 12:32:00,42.3,37.5,29.44,WNW,289,0.0,0.0,83,0.00,,---,0.00,VWS V14.01,2013-01-27 20:32:00,
2013-01-27 12:37:00,42.3,37.8,29.44,West,275,2.7,3.1,84,0.00,,---,0.00,VWS V14.01,2013-01-27 20:37:00,
2013-01-27 12:42:00,42.1,37.3,29.44,WSW,239,3.1,3.1,83,0.04,,---,0.04,VWS V14.01,2013-01-27 20:42:00,
2013-01-27 12:47:00,41.5,36.5,29.44,WSW,256,3.1,3.1,82,0.04,,---,0.04,VWS V14.01,2013-01-27 20:47:00,
2013-01-27 12:52:00,41.4,36.0,29.44,WNW,282,0.0,0.0,81,0.04,,---,0.04,VWS V14.01,2013-01-27 20:52:00,
2013-01-27 12:57:00,41.2,36.1,29.44,West,277,0.0,0.0,82,0.04,,---,0.04,VWS V14.01,2013-01-27 20:57:00,
2013-01-27 13:02:00,41.2,36.1,29.44,WNW,294,2.2,2.2,82,0.04,,---,0.04,VWS V14.01,2013-01-27 21:02:00,
2013-01-27 13:07:00,41.2,36.1,29.44,WNW,292,0.0,0.0,82,0.04,,---,0.04,VWS V14.01,2013-01-27 21:07:00,
2013-01-27 13:12:00,41.2,36.4,29.41,WNW,295,2.7,3.6,83,0.04,,---,0.04,VWS V14.01,2013-01-27 21:12:00,
2013-01-27 13:17:00,41.2,36.4,29.41,West,270,2.7,3.1,83,0.04,,---,0.04,VWS V14.01,2013-01-27 21:17:00,
2013-01-27 13:22:00,41.2,36.7,29.41,WSW,254,3.6,3.6,84,0.04,,---,0.04,VWS V14.01,2013-01-27 21:22:00,
2013-01-27 13:27:00,41.2,36.7,29.41,West,267,2.2,2.2,84,0.04,,---,0.04,VWS V14.01,2013-01-27 21:27:00,
2013-01-27 13:32:00,41.2,36.7,29.41,West,263,2.7,2.7,84,0.04,,---,0.04,VWS V14.01,2013-01-27 21:32:00,
2013-01-27 13:37:00,41.2,36.7,29.41,West,265,3.1,3.1,84,0.04,,---,0.04,VWS V14.01,2013-01-27 21:37:00,
2013-01-27 13:42:00,41.0,36.5,29.41,West,261,0.0,0.0,84,0.00,,---,0.04,VWS V14.01,2013-01-27 21:42:00,
2013-01-27 13:47:00,41.0,36.5,29.41,West,275,0.0,0.0,84,0.00,,---,0.04,VWS V14.01,2013-01-27 21:47:00,
2013-01-27 13:52:00,41.0,36.8,29.41,West,261,0.0,2.2,85,0.00,,---,0.04,VWS V14.01,2013-01-27 21:52:00,
2013-01-27 13:57:00,41.0,36.8,29.41,WSW,252,0.0,0.0,85,0.00,,---,0.04,VWS V14.01,2013-01-27 21:57:00,
2013-01-27 14:02:00,41.0,36.8,29.41,SSW,210,0.0,2.2,85,0.00,,---,0.04,VWS V14.01,2013-01-27 22:02:00,
2013-01-27 14:07:00,40.8,37.0,29.41,WSW,249,0.0,0.0,86,0.00,,---,0.04,VWS V14.01,2013-01-27 22:07:00,
2013-01-27 14:12:00,40.8,37.0,29.41,West,273,2.7,3.6,86,0.00,,---,0.04,VWS V14.01,2013-01-27 22:12:00,
2013-01-27 14:17:00,40.8,37.0,29.41,WNW,289,2.2,2.2,86,0.00,,---,0.04,VWS V14.01,2013-01-27 22:17:00,
2013-01-27 14:22:00,40.8,37.0,29.41,WNW,287,0.0,0.0,86,0.00,,---,0.04,VWS V14.01,2013-01-27 22:22:00,
2013-01-27 14:27:00,40.8,37.3,29.41,West,278,0.0,0.0,87,0.00,,---,0.04,VWS V14.01,2013-01-27 22:27:00,
2013-01-27 14:32:00,40.8,37.3,29.41,WSW,251,0.0,0.0,87,0.00,,---,0.04,VWS V14.01,2013-01-27 22:32:00,
2013-01-27 14:37:00,40.8,37.3,29.41,SE,124,0.0,0.0,87,0.00,,---,0.04,VWS V14.01,2013-01-27 22:37:00,
2013-01-27 14:42:00,40.8,37.3,29.41,WSW,253,0.0,2.2,87,0.00,,---,0.04,VWS V14.01,2013-01-27 22:42:00,
2013-01-27 14:47:00,40.8,37.3,29.41,WSW,252,0.0,0.0,87,0.00,,---,0.04,VWS V14.01,2013-01-27 22:47:00,
2013-01-27 14:52:00,40.8,37.3,29.41,West,275,3.1,3.1,87,0.00,,---,0.04,VWS V14.01,2013-01-27 22:52:00,
2013-01-27 14:57:00,40.8,37.3,29.38,West,273,0.0,0.0,87,0.00,,---,0.04,VWS V14.01,2013-01-27 22:57:00,
2013-01-27 15:02:00,40.6,37.1,29.38,WSW,237,0.0,0.0,87,0.00,,---,0.04,VWS V14.01,2013-01-27 23:02:00,
2013-01-27 15:07:00,40.6,37.1,29.38,WSW,242,0.0,2.7,87,0.00,,---,0.04,VWS V14.01,2013-01-27 23:07:00,
2013-01-27 15:12:00,40.6,37.4,29.41,WSW,242,0.0,0.0,88,0.00,,---,0.04,VWS V14.01,2013-01-27 23:12:00,
2013-01-27 15:17:00,40.6,37.4,29.41,West,279,0.0,0.0,88,0.00,,---,0.04,VWS V14.01,2013-01-27 23:17:00,
2013-01-27 15:22:00,40.6,37.4,29.41,SE,132,0.0,2.2,88,0.04,,---,0.08,VWS V14.01,2013-01-27 23:22:00,
2013-01-27 15:27:00,40.6,37.4,29.38,SSW,195,0.0,2.2,88,0.04,,---,0.08,VWS V14.01,2013-01-27 23:27:00,
2013-01-27 15:32:00,40.6,37.4,29.38,SSW,193,0.0,2.2,88,0.04,,---,0.08,VWS V14.01,2013-01-27 23:32:00,
2013-01-27 15:37:00,40.5,37.2,29.38,South,186,0.0,0.0,88,0.04,,---,0.08,VWS V14.01,2013-01-27 23:37:00,
2013-01-27 15:42:00,40.5,37.2,29.41,South,189,2.2,2.2,88,0.04,,---,0.08,VWS V14.01,2013-01-27 23:42:00,
2013-01-27 15:47:00,40.5,37.2,29.41,WSW,258,0.0,0.0,88,0.04,,---,0.08,VWS V14.01,2013-01-27 23:47:00,
2013-01-27 15:52:00,40.5,37.5,29.41,SW,229,0.0,0.0,89,0.04,,---,0.08,VWS V14.01,2013-01-27 23:52:00,
2013-01-27 15:57:00,40.5,37.5,29.41,SW,228,0.0,0.0,89,0.04,,---,0.08,VWS V14.01,2013-01-27 23:57:00,
2013-01-27 16:02:00,40.5,37.5,29.41,SW,229,0.0,0.0,89,0.04,,---,0.08,VWS V14.01,2013-01-28 00:02:00,
2013-01-27 16:07:00,40.5,37.5,29.41,SW,230,0.0,0.0,89,0.04,,---,0.08,VWS V14.01,2013-01-28 00:07:00,
2013-01-27 16:12:00,40.5,37.5,29.38,WSW,243,0.0,2.2,89,0.04,,---,0.08,VWS V14.01,2013-01-28 00:12:00,
2013-01-27 16:17:00,40.3,37.3,29.38,WSW,257,0.0,2.2,89,0.04,,---,0.08,VWS V14.01,2013-01-28 00:17:00,
2013-01-27 16:22:00,40.3,37.6,29.38,SE,128,0.0,2.2,90,0.00,,---,0.08,VWS V14.01,2013-01-28 00:22:00,
2013-01-27 16:27:00,40.3,37.6,29.38,SE,130,0.0,2.2,90,0.00,,---,0.08,VWS V14.01,2013-01-28 00:27:00,
2013-01-27 16:32:00,40.3,37.6,29.38,SSW,196,0.0,2.2,90,0.00,,---,0.08,VWS V14.01,2013-01-28 00:32:00,
2013-01-27 16:37:00,40.3,37.6,29.38,SSW,194,0.0,0.0,90,0.00,,---,0.08,VWS V14.01,2013-01-28 00:37:00,
2013-01-27 16:42:00,40.1,37.4,29.38,SW,214,0.0,0.0,90,0.00,,---,0.08,VWS V14.01,2013-01-28 00:42:00,
2013-01-27 16:47:00,40.1,37.4,29.38,SSW,195,0.0,3.1,90,0.00,,---,0.08,VWS V14.01,2013-01-28 00:47:00,
2013-01-27 16:52:00,40.1,37.4,29.38,SSW,212,0.0,0.0,90,0.00,,---,0.08,VWS V14.01,2013-01-28 00:52:00,
2013-01-27 16:56:00,40.1,37.4,29.38,SSW,203,2.2,2.2,90,0.00,,---,0.08,VWS V14.01,2013-01-28 00:56:00,
2013-01-27 17:01:00,39.9,37.5,29.38,SSW,212,0.0,2.2,91,0.04,,---,0.12,VWS V14.01,2013-01-28 01:01:00,
2013-01-27 17:06:00,39.9,37.5,29.38,SSW,212,0.0,0.0,91,0.04,,---,0.12,VWS V14.01,2013-01-28 01:06:00,
2013-01-27 17:11:00,39.9,37.5,29.38,ESE,115,0.0,0.0,91,0.04,,---,0.12,VWS V14.01,2013-01-28 01:11:00,
2013-01-27 17:16:00,39.9,37.5,29.38,ESE,117,0.0,0.0,91,0.04,,---,0.12,VWS V14.01,2013-01-28 01:16:00,
2013-01-27 17:21:00,39.7,37.3,29.38,SW,234,0.0,0.0,91,0.04,,---,0.12,VWS V14.01,2013-01-28 01:21:00,
2013-01-27 17:26:00,39.7,37.3,29.38,SW,230,0.0,0.0,91,0.04,,---,0.12,VWS V14.01,2013-01-28 01:26:00,
2013-01-27 17:31:00,39.7,37.3,29.38,West,275,2.2,2.2,91,0.04,,---,0.12,VWS V14.01,2013-01-28 01:31:00,
2013-01-27 17:36:00,39.7,37.3,29.38,WSW,254,0.0,2.2,91,0.04,,---,0.12,VWS V14.01,2013-01-28 01:36:00,
2013-01-27 17:41:00,39.6,37.2,29.38,West,268,0.0,0.0,91,0.04,,---,0.12,VWS V14.01,2013-01-28 01:41:00,
2013-01-27 17:46:00,39.6,37.2,29.38,SE,139,0.0,3.6,91,0.04,,---,0.12,VWS V14.01,2013-01-28 01:46:00,
2013-01-27 17:51:00,39.6,37.2,29.38,SE,138,0.0,0.0,91,0.04,,---,0.12,VWS V14.01,2013-01-28 01:51:00,
2013-01-27 17:56:00,39.6,37.2,29.38,SSW,206,0.0,0.0,91,0.04,,---,0.12,VWS V14.01,2013-01-28 01:56:00,
2013-01-27 18:01:00,39.6,37.2,29.38,SSW,199,0.0,0.0,91,0.00,,---,0.12,VWS V14.01,2013-01-28 02:01:00,
2013-01-27 18:06:00,39.4,37.0,29.38,South,169,2.2,2.2,91,0.00,,---,0.12,VWS V14.01,2013-01-28 02:06:00,
2013-01-27 18:11:00,39.6,37.2,29.38,SW,227,0.0,0.0,91,0.04,,---,0.16,VWS V14.01,2013-01-28 02:11:00,
2013-01-27 18:16:00,39.6,37.4,29.38,SW,225,0.0,0.0,92,0.04,,---,0.16,VWS V14.01,2013-01-28 02:16:00,
2013-01-27 18:21:00,37.6,35.5,29.38,SW,234,0.0,0.0,92,0.04,,---,0.16,VWS V14.01,2013-01-28 02:21:00,
2013-01-27 18:26:00,39.4,37.2,29.38,North,5,0.0,0.0,92,0.04,,---,0.16,VWS V14.01,2013-01-28 02:26:00,
2013-01-27 18:31:00,39.4,37.2,29.38,NW,312,0.0,0.0,92,0.04,,---,0.16,VWS V14.01,2013-01-28 02:31:00,
2013-01-27 18:36:00,39.4,37.2,29.38,NW,312,0.0,0.0,92,0.04,,---,0.16,VWS V14.01,2013-01-28 02:36:00,
2013-01-27 18:41:00,39.4,37.2,29.38,NW,312,0.0,0.0,92,0.04,,---,0.16,VWS V14.01,2013-01-28 02:41:00,
2013-01-27 18:46:00,39.2,37.1,29.38,NW,312,0.0,0.0,92,0.04,,---,0.16,VWS V14.01,2013-01-28 02:46:00,
2013-01-27 18:51:00,39.0,36.9,29.38,NW,311,0.0,0.0,92,0.04,,---,0.16,VWS V14.01,2013-01-28 02:51:00,
2013-01-27 18:56:00,38.8,36.7,29.38,NW,311,0.0,0.0,92,0.04,,---,0.16,VWS V14.01,2013-01-28 02:56:00,
2013-01-27 19:01:00,38.8,36.7,29.38,NW,311,0.0,0.0,92,0.04,,---,0.16,VWS V14.01,2013-01-28 03:01:00,
2013-01-27 19:06:00,38.8,36.7,29.38,NW,311,0.0,0.0,92,0.04,,---,0.16,VWS V14.01,2013-01-28 03:06:00,
2013-01-27 19:11:00,38.7,36.5,29.38,NW,311,0.0,0.0,92,0.04,,---,0.16,VWS V14.01,2013-01-28 03:11:00,
2013-01-27 19:16:00,38.7,36.8,29.38,NW,311,0.0,0.0,93,0.00,,---,0.16,VWS V14.01,2013-01-28 03:16:00,
2013-01-27 19:21:00,38.7,36.8,29.38,NW,311,0.0,0.0,93,0.00,,---,0.16,VWS V14.01,2013-01-28 03:21:00,
2013-01-27 19:26:00,38.7,36.8,29.38,NW,311,0.0,0.0,93,0.00,,---,0.16,VWS V14.01,2013-01-28 03:26:00,
2013-01-27 19:31:00,38.8,37.0,29.38,NW,311,0.0,0.0,93,0.00,,---,0.16,VWS V14.01,2013-01-28 03:31:00,
2013-01-27 19:36:00,38.8,37.0,29.38,NW,311,0.0,0.0,93,0.00,,---,0.16,VWS V14.01,2013-01-28 03:36:00,
2013-01-27 19:41:00,38.8,37.0,29.38,NW,311,0.0,0.0,93,0.00,,---,0.16,VWS V14.01,2013-01-28 03:41:00,
2013-01-27 19:46:00,38.8,37.3,29.38,NW,311,0.0,0.0,94,0.00,,---,0.16,VWS V14.01,2013-01-28 03:46:00,
2013-01-27 19:51:00,38.8,37.3,29.38,NW,311,0.0,0.0,94,0.00,,---,0.16,VWS V14.01,2013-01-28 03:51:00,
2013-01-27 19:56:00,39.0,37.4,29.38,NW,311,0.0,0.0,94,0.00,,---,0.16,VWS V14.01,2013-01-28 03:56:00,
2013-01-27 20:01:00,39.0,37.4,29.38,NW,310,0.0,0.0,94,0.00,,---,0.16,VWS V14.01,2013-01-28 04:01:00,
2013-01-27 20:06:00,39.0,37.4,29.38,NW,310,0.0,0.0,94,0.04,,---,0.20,VWS V14.01,2013-01-28 04:06:00,
2013-01-27 20:11:00,39.0,37.4,29.38,NW,310,0.0,0.0,94,0.04,,---,0.20,VWS V14.01,2013-01-28 04:11:00,
2013-01-27 20:16:00,38.8,37.3,29.38,NW,310,0.0,0.0,94,0.04,,---,0.20,VWS V14.01,2013-01-28 04:16:00,
2013-01-27 20:21:00,38.8,37.3,29.38,NW,310,0.0,0.0,94,0.04,,---,0.20,VWS V14.01,2013-01-28 04:21:00,
2013-01-27 20:26:00,38.8,37.3,29.38,NW,314,0.0,0.0,94,0.04,,---,0.20,VWS V14.01,2013-01-28 04:26:00,
2013-01-27 20:31:00,38.7,37.1,29.38,NW,314,0.0,0.0,94,0.04,,---,0.20,VWS V14.01,2013-01-28 04:31:00,
2013-01-27 20:36:00,38.7,37.1,29.38,NW,314,0.0,0.0,94,0.04,,---,0.20,VWS V14.01,2013-01-28 04:36:00,
2013-01-27 20:41:00,38.8,37.3,29.38,NW,314,0.0,0.0,94,0.04,,---,0.20,VWS V14.01,2013-01-28 04:41:00,
2013-01-27 20:46:00,38.8,37.5,29.38,NW,314,0.0,0.0,95,0.04,,---,0.20,VWS V14.01,2013-01-28 04:46:00,
2013-01-27 20:51:00,38.8,37.5,29.38,NW,314,0.0,0.0,95,0.04,,---,0.20,VWS V14.01,2013-01-28 04:51:00,
2013-01-27 20:56:00,38.7,37.3,29.38,NW,314,0.0,0.0,95,0.08,,---,0.24,VWS V14.01,2013-01-28 04:56:00,
2013-01-27 21:00:00,38.7,37.3,29.38,NW,314,0.0,0.0,95,0.08,,---,0.24,VWS V14.01,2013-01-28 05:00:00,
2013-01-27 21:03:00,38.5,36.9,29.38,NW,314,0.0,0.0,94,0.04,,---,0.24,VWS V14.01,2013-01-28 05:03:00,
2013-01-27 21:05:00,38.3,36.7,29.38,NW,314,0.0,0.0,94,0.04,,---,0.24,VWS V14.01,2013-01-28 05:05:00,
2013-01-27 21:10:00,38.1,36.5,29.38,NW,314,0.0,0.0,94,0.04,,---,0.24,VWS V14.01,2013-01-28 05:10:00,
2013-01-27 21:15:00,38.1,36.5,29.38,NW,314,0.0,0.0,94,0.04,,---,0.24,VWS V14.01,2013-01-28 05:15:00,
2013-01-27 21:20:00,37.9,36.4,29.38,NW,314,0.0,0.0,94,0.04,,---,0.24,VWS V14.01,2013-01-28 05:20:00,
2013-01-27 21:25:00,37.9,36.6,29.38,NW,314,0.0,0.0,95,0.04,,---,0.24,VWS V14.01,2013-01-28 05:25:00,
2013-01-27 21:30:00,37.9,36.6,29.38,NW,314,0.0,0.0,95,0.04,,---,0.24,VWS V14.01,2013-01-28 05:30:00,
2013-01-27 21:35:00,37.9,36.6,29.38,NW,314,0.0,0.0,95,0.04,,---,0.24,VWS V14.01,2013-01-28 05:35:00,
2013-01-27 21:40:00,37.9,36.6,29.38,NW,314,0.0,0.0,95,0.04,,---,0.24,VWS V14.01,2013-01-28 05:40:00,
2013-01-27 21:45:00,37.8,36.5,29.38,NW,314,0.0,0.0,95,0.04,,---,0.24,VWS V14.01,2013-01-28 05:45:00,
2013-01-27 21:50:00,37.8,36.5,29.38,NW,314,0.0,0.0,95,0.04,,---,0.24,VWS V14.01,2013-01-28 05:50:00,
2013-01-27 21:55:00,37.8,36.5,29.38,NW,314,0.0,0.0,95,0.00,,---,0.24,VWS V14.01,2013-01-28 05:55:00,
2013-01-27 22:00:00,37.8,36.5,29.38,NW,314,0.0,0.0,95,0.00,,---,0.24,VWS V14.01,2013-01-28 06:00:00,
2013-01-27 22:05:00,37.8,36.5,29.38,NW,314,0.0,0.0,95,0.00,,---,0.24,VWS V14.01,2013-01-28 06:05:00,
2013-01-27 22:10:00,37.8,36.5,29.38,NW,314,0.0,0.0,95,0.00,,---,0.24,VWS V14.01,2013-01-28 06:10:00,
2013-01-27 22:15:00,37.6,36.3,29.38,NW,314,0.0,0.0,95,0.00,,---,0.24,VWS V14.01,2013-01-28 06:15:00,
2013-01-27 22:20:00,37.6,36.3,29.38,NW,314,0.0,0.0,95,0.00,,---,0.24,VWS V14.01,2013-01-28 06:20:00,
2013-01-27 22:25:00,37.6,36.3,29.38,NW,314,0.0,0.0,95,0.00,,---,0.24,VWS V14.01,2013-01-28 06:25:00,
2013-01-27 22:30:00,37.4,36.1,29.38,NW,314,0.0,0.0,95,0.00,,---,0.24,VWS V14.01,2013-01-28 06:30:00,
2013-01-27 22:35:00,37.4,36.1,29.38,NW,314,0.0,0.0,95,0.00,,---,0.24,VWS V14.01,2013-01-28 06:35:00,
2013-01-27 22:40:00,37.4,36.1,29.38,NW,314,0.0,0.0,95,0.00,,---,0.24,VWS V14.01,2013-01-28 06:40:00,
2013-01-27 22:45:00,37.6,36.3,29.38,NW,314,0.0,0.0,95,0.00,,---,0.24,VWS V14.01,2013-01-28 06:45:00,
2013-01-27 22:50:00,37.6,36.3,29.38,NW,314,0.0,0.0,95,0.00,,---,0.24,VWS V14.01,2013-01-28 06:50:00,
2013-01-27 22:55:00,37.6,36.3,29.38,NW,314,0.0,0.0,95,0.00,,---,0.24,VWS V14.01,2013-01-28 06:55:00,
2013-01-27 23:00:00,37.6,36.3,29.38,NW,314,0.0,0.0,95,0.00,,---,0.24,VWS V14.01,2013-01-28 07:00:00,
2013-01-27 23:05:00,37.8,36.5,29.38,NW,314,0.0,0.0,95,0.00,,---,0.24,VWS V14.01,2013-01-28 07:05:00,
2013-01-27 23:10:00,37.9,36.6,29.38,NW,314,0.0,0.0,95,0.00,,---,0.24,VWS V14.01,2013-01-28 07:10:00,
2013-01-27 23:15:00,37.9,36.6,29.38,NW,314,0.0,0.0,95,0.00,,---,0.24,VWS V14.01,2013-01-28 07:15:00,
2013-01-27 23:20:00,37.9,36.6,29.38,NW,314,0.0,0.0,95,0.00,,---,0.24,VWS V14.01,2013-01-28 07:20:00,
2013-01-27 23:25:00,37.9,36.9,29.41,NW,314,0.0,0.0,96,0.00,,---,0.24,VWS V14.01,2013-01-28 07:25:00,
2013-01-27 23:30:00,37.9,36.9,29.41,NW,314,0.0,0.0,96,0.00,,---,0.24,VWS V14.01,2013-01-28 07:30:00,
2013-01-27 23:35:00,37.9,36.6,29.41,NW,314,0.0,0.0,95,0.00,,---,0.24,VWS V14.01,2013-01-28 07:35:00,
2013-01-27 23:40:00,37.9,36.6,29.41,NW,314,0.0,0.0,95,0.00,,---,0.24,VWS V14.01,2013-01-28 07:40:00,
2013-01-27 23:45:00,37.8,36.5,29.41,NW,314,0.0,0.0,95,0.00,,---,0.24,VWS V14.01,2013-01-28 07:45:00,
2013-01-27 23:50:00,37.8,36.7,29.41,NW,314,0.0,0.0,96,0.00,,---,0.24,VWS V14.01,2013-01-28 07:50:00,
2013-01-27 23:55:00,37.8,36.7,29.41,NW,314,0.0,0.0,96,0.00,,---,0.24,VWS V14.01,2013-01-28 07:55:00,